Dalzell, IL

10:35 PM CDT on August 31, 2016 (GMT -0500)
Illinois Valley Regional-Duncan

Weather History for KVYS - December, 2010

Change the Weather History Date:

Thursday, December 16, 2010

  Actual Average Record
Temperature  
Mean Temperature 21 °F -  
Max Temperature 23 °F 36 °F 55 °F (1984)
Min Temperature 19 °F 20 °F -15 °F (1989)
Degree Days  
Heating Degree Days 44    
Moisture  
Dew Point 19 °F    
Average Humidity 88    
Maximum Humidity 89    
Minimum Humidity 86    
Precipitation  
Precipitation 0.01 in - - ()
Sea Level Pressure  
Sea Level Pressure 29.82 in    
Wind  
Wind Speed 8 mph (NNE)    
Max Wind Speed 12 mph    
Max Gust Speed -    
Visibility 4 miles    
Events Snow    
Averages and records for this station are not official NWS values.
T = Trace of Precipitation, MM = Missing Value Source: NWS Daily Summary

Daily Weather History Graph

Daily Weather History Graph

Search for Another Location

Airport or City:

Trip Planner

Search our weather history database for the weather conditions in past years. The results will help you decide how hot, cold, wet, or windy it might be!

Date:

Astronomy

Dec. 16, 2010 Rise Set
Actual Time 7:16 AM CST 4:28 PM CST
Civil Twilight 6:44 AM CST 4:59 PM CST
Nautical Twilight 6:10 AM CST 5:34 PM CST
Astronomical Twilight 5:36 AM CST 6:08 PM CST
Moon 1:03 PM CST (12/16) 2:31 AM CST (12/16)
Length of Visible Light 10h 14m
Length of Day
9h 12m
Waxing Gibbous, 78% of the Moon is Illuminated
Dec 16
Waxing Gibbous
Dec 21
Full
Dec 27
Last Quarter
Jan 4
New
Jan 12
First Quarter

Hourly Weather History & Observations

Time (CST) Temp. Windchill Dew Point Humidity Pressure Visibility Wind Dir Wind Speed Gust Speed Precip Events Conditions
12:05 AM 20.1 °F 9.5 °F 17.2 °F 89% 29.82 in 1.5 mi ENE 9.2 mph - N/A   Overcast
12:25 AM 20.1 °F 8.1 °F 17.2 °F 89% 29.81 in 1.2 mi ENE 11.5 mph - N/A   Overcast
12:45 AM 20.1 °F 8.8 °F 17.2 °F 89% 29.81 in 2.0 mi ENE 10.4 mph - N/A   Overcast
1:05 AM 20.1 °F 8.8 °F 17.2 °F 89% 29.81 in 2.5 mi ENE 10.4 mph - N/A   Overcast
1:25 AM 19.9 °F 9.3 °F 16.9 °F 88% 29.80 in 2.0 mi ENE 9.2 mph - N/A   Overcast
1:45 AM 19.9 °F 10.1 °F 16.7 °F 87% 29.80 in 1.5 mi ENE 8.1 mph - N/A   Overcast
2:05 AM 19.9 °F 7.9 °F 16.7 °F 87% 29.79 in 2.0 mi ENE 11.5 mph - N/A   Overcast
2:25 AM 19.9 °F 7.9 °F 16.7 °F 87% 29.79 in 2.0 mi ENE 11.5 mph - N/A   Overcast
2:45 AM 20.1 °F 9.5 °F 16.7 °F 87% 29.78 in 2.5 mi ENE 9.2 mph - N/A   Overcast
3:05 AM 20.3 °F 8.3 °F 17.1 °F 87% 29.78 in 4.0 mi ENE 11.5 mph - N/A   Overcast
3:25 AM 20.3 °F 9.0 °F 17.4 °F 89% 29.77 in 4.0 mi ENE 10.4 mph - N/A   Overcast
3:45 AM 20.3 °F 11.5 °F 17.4 °F 89% 29.78 in 5.0 mi ENE 6.9 mph - N/A   Overcast
4:05 AM 20.3 °F 10.6 °F 17.4 °F 89% 29.78 in 3.0 mi ENE 8.1 mph - N/A   Overcast
4:25 AM 20.3 °F 9.8 °F 17.4 °F 89% 29.78 in 2.5 mi ENE 9.2 mph - N/A   Overcast
4:45 AM 20.3 °F 9.0 °F 17.4 °F 89% 29.78 in 2.5 mi ENE 10.4 mph - N/A   Overcast
5:05 AM 20.7 °F 11.0 °F 17.6 °F 88% 29.78 in 3.0 mi ENE 8.1 mph - N/A   Overcast
5:25 AM 20.7 °F 11.0 °F 17.6 °F 88% 29.77 in 3.0 mi ENE 8.1 mph - N/A   Overcast
5:45 AM 20.5 °F 11.7 °F 17.4 °F 88% 29.77 in 3.0 mi ENE 6.9 mph - N/A   Overcast
6:05 AM 20.7 °F 11.0 °F 17.6 °F 88% 29.77 in 7.0 mi NE 8.1 mph - N/A   Overcast
6:26 AM 20.8 °F 11.2 °F 18.0 °F 89% 29.77 in 10.0 mi NE 8.1 mph - N/A   Overcast
6:45 AM 21.2 °F 11.7 °F 18.3 °F 89% 29.78 in 10.0 mi NE 8.1 mph - N/A   Overcast
7:05 AM 21.2 °F 10.1 °F 18.5 °F 89% 29.77 in 10.0 mi NE 10.4 mph - N/A   Overcast
7:25 AM 21.2 °F 11.7 °F 18.3 °F 89% 29.77 in 7.0 mi ENE 8.1 mph - N/A   Overcast
7:45 AM 21.7 °F 14.3 °F 18.5 °F 87% 29.78 in 7.0 mi NE 5.8 mph - N/A   Overcast
8:05 AM 21.9 °F 14.5 °F 18.3 °F 86% 29.79 in 5.0 mi NE 5.8 mph - N/A   Overcast
8:25 AM 22.3 °F 16.1 °F 18.7 °F 86% 29.79 in 5.0 mi ENE 4.6 mph - N/A   Overcast
8:45 AM 22.5 °F 17.8 °F 18.9 °F 86% 29.79 in 3.0 mi ENE 3.5 mph - N/A   Overcast
9:05 AM 22.6 °F 16.5 °F 19.0 °F 86% 29.79 in 2.5 mi ENE 4.6 mph - N/A   Overcast
9:25 AM 22.8 °F - 19.2 °F 86% 29.80 in 1.8 mi Calm Calm - N/A   Overcast
9:45 AM 22.8 °F - 19.2 °F 86% 29.82 in 2.0 mi Calm Calm - N/A   Overcast
10:06 AM 22.8 °F 16.7 °F 19.4 °F 87% 29.83 in 2.5 mi North 4.6 mph - N/A   Overcast
10:25 AM 23.0 °F - 19.8 °F 87% 29.83 in 3.0 mi Calm Calm - N/A   Overcast
10:45 AM 23.0 °F 18.4 °F 19.9 °F 88% 29.83 in 3.0 mi NNW 3.5 mph - N/A   Overcast
11:05 AM 22.6 °F 14.3 °F 19.2 °F 87% 29.83 in 5.0 mi NNW 6.9 mph - N/A   Overcast
11:25 AM 22.6 °F 14.3 °F 19.2 °F 87% 29.83 in 5.0 mi NNW 6.9 mph - N/A   Overcast
11:45 AM 23.0 °F 13.9 °F 19.4 °F 86% 29.83 in 5.0 mi NW 8.1 mph - N/A   Overcast
12:05 PM 22.8 °F 15.5 °F 19.2 °F 86% 29.83 in 4.0 mi NNW 5.8 mph - N/A   Overcast
12:25 PM 23.0 °F 15.8 °F 19.4 °F 86% 29.83 in 3.0 mi NW 5.8 mph - N/A   Overcast
12:46 PM 22.8 °F 15.5 °F 19.4 °F 87% 29.83 in 2.5 mi NNW 5.8 mph - 0.01 in   Overcast
1:05 PM 23.0 °F 17.0 °F 19.4 °F 86% 29.83 in 3.0 mi NNW 4.6 mph - N/A   Overcast
1:25 PM 22.8 °F 16.7 °F 19.8 °F 88% 29.83 in 3.0 mi NW 4.6 mph - N/A   Overcast
1:45 PM 23.0 °F 18.4 °F 19.4 °F 86% 29.83 in 4.0 mi NW 3.5 mph - N/A   Overcast
2:05 PM 23.4 °F 18.9 °F 20.1 °F 87% 29.83 in 5.0 mi NW 3.5 mph - N/A   Overcast
2:25 PM 23.5 °F 19.1 °F 20.3 °F 87% 29.84 in 5.0 mi WNW 3.5 mph - N/A   Overcast
2:45 PM 23.7 °F 17.8 °F 20.3 °F 87% 29.85 in 5.0 mi WNW 4.6 mph - N/A   Overcast
3:05 PM 23.7 °F 16.6 °F 20.3 °F 87% 29.85 in 7.0 mi WNW 5.8 mph - N/A   Overcast
3:25 PM 23.7 °F 15.6 °F 20.3 °F 87% 29.86 in 7.0 mi WNW 6.9 mph - N/A   Overcast
3:45 PM 23.7 °F 14.7 °F 20.7 °F 88% 29.87 in 7.0 mi WNW 8.1 mph - N/A   Overcast
4:05 PM 23.0 °F 14.7 °F 20.1 °F 89% 29.88 in 7.0 mi WNW 6.9 mph - N/A   Overcast
4:26 PM 23.0 °F 14.7 °F 19.9 °F 88% 29.89 in 7.0 mi WNW 6.9 mph - N/A   Overcast
4:45 PM 22.8 °F 14.5 °F 19.4 °F 87% 29.90 in 7.0 mi NW 6.9 mph - N/A   Overcast
5:05 PM 22.5 °F 13.2 °F 19.2 °F 87% 29.90 in 7.0 mi NW 8.1 mph - N/A   Overcast
5:25 PM 22.3 °F 12.2 °F 19.2 °F 88% 29.91 in 4.0 mi WNW 9.2 mph - N/A   Overcast
5:45 PM 21.2 °F 10.9 °F 18.5 °F 89% 29.92 in 5.0 mi NW 9.2 mph - N/A Snow Light Snow
6:06 PM 21.2 °F 11.7 °F 18.1 °F 88% 29.92 in 7.0 mi NW 8.1 mph - N/A   Overcast
6:25 PM 21.0 °F 13.4 °F 17.6 °F 87% 29.93 in 5.0 mi NW 5.8 mph - N/A Snow Light Snow
6:45 PM 21.2 °F 14.9 °F 17.6 °F 86% 29.93 in 4.0 mi WNW 4.6 mph - N/A Snow Light Snow
7:05 PM 21.2 °F 13.6 °F 17.6 °F 86% 29.93 in 4.0 mi WNW 5.8 mph - N/A Snow Light Snow
7:25 PM 21.0 °F 12.4 °F 17.8 °F 87% 29.94 in 3.0 mi WNW 6.9 mph - N/A Snow Light Snow
7:45 PM 20.8 °F 14.4 °F 17.6 °F 87% 29.94 in 2.5 mi WNW 4.6 mph - N/A Snow Light Snow
8:05 PM 20.7 °F 13.0 °F 17.8 °F 89% 29.93 in 2.5 mi NW 5.8 mph - N/A Snow Light Snow
8:25 PM 20.3 °F 12.5 °F 17.6 °F 89% 29.95 in 3.0 mi WNW 5.8 mph - N/A Snow Light Snow
8:46 PM 20.3 °F 11.5 °F 17.6 °F 89% 29.96 in 4.0 mi WNW 6.9 mph - N/A Snow Light Snow
9:05 PM 20.3 °F 12.5 °F 17.6 °F 89% 29.97 in 4.0 mi WNW 5.8 mph - N/A Snow Light Snow
9:25 PM 19.8 °F 13.2 °F 16.7 °F 88% 29.98 in 5.0 mi WNW 4.6 mph - N/A Snow Light Snow
9:45 PM 17.6 °F 8.2 °F 14.9 °F 89% 29.99 in 5.0 mi West 6.9 mph - N/A Snow Light Snow
10:05 PM 18.1 °F 8.9 °F 15.6 °F 90% 30.00 in 5.0 mi West 6.9 mph - N/A   Overcast
10:25 PM 18.5 °F 10.4 °F 16.2 °F 91% 30.00 in 5.0 mi West 5.8 mph - N/A   Overcast
10:45 PM 18.5 °F 9.3 °F 15.8 °F 89% 30.00 in 7.0 mi WNW 6.9 mph - N/A   Overcast
11:05 PM 18.3 °F 8.2 °F 15.6 °F 89% 30.01 in 7.0 mi West 8.1 mph - N/A   Overcast
11:26 PM 19.6 °F 9.7 °F 16.9 °F 89% 30.01 in 7.0 mi WNW 8.1 mph - N/A   Overcast
11:45 PM 17.4 °F 8.0 °F 14.5 °F 88% 30.01 in 7.0 mi West 6.9 mph - N/A   Mostly Cloudy